#timestamp,LO_Frequency,Hit,StdDev 
1663329615.3,286047002.3,N
1663329635.1,286047001.9,N
1663329655.9,286047004.0,Y
1663329675.7,286047004.1,P
1663329695.6,286047002.0,N
1663329715.4,286047004.4,N
1663329735.2,286047004.1,N
1663329755.1,286047004.3,N
1663329756.0,286047004.3,N
1663329775.8,286047001.9,N
1663329795.6,286047001.9,N
1663329815.5,286047001.6,N
1663329835.3,286047002.0,N
1663329855.2,286047002.0,N
1663329875.9,286047002.5,N
1663329895.7,286047001.7,N
1663329915.6,286047001.5,N
1663329935.4,286047002.6,N
1663329955.2,286047000.0,N
1663329975.1,286047000.1,N
1663329976.0,286047000.1,N
1663329995.8,286047002.0,N
1663330015.7,286047001.7,N
1663330035.5,286047004.2,N
1663330055.3,286047003.0,N
1663330075.2,286047002.9,N
1663330095.0,286047002.9,N
1663330095.9,286047002.9,N
1663330115.8,286047003.0,N
1663330135.6,286047003.7,N
1663330155.4,286047004.2,Y
1663330175.3,286047000.2,P
1663330195.1,286047000.1,N
1663330215.8,286046999.7,N
1663330235.7,286047001.9,N
1663330255.5,286047002.7,N
1663330275.4,286047002.4,N
1663330295.2,286047001.5,N
1663330315.0,286047002.1,N
1663330315.9,286047002.1,N
1663330335.8,286047001.8,N
1663330355.6,286047004.1,Y
1663330375.4,286047002.2,P
1663330395.3,286047002.5,P
1663330415.1,286047001.5,P
1663330435.9,286047002.3,Y
1663330455.7,286047002.8,P
1663330475.5,286047002.8,P
1663330495.4,286046999.8,N
1663330515.2,286046999.1,N
1663330535.1,286046999.0,N
1663330536.0,286046999.0,N
1663330555.8,286046997.2,N
1663330575.6,286046999.1,N
1663330595.5,286046999.2,N
1663330615.3,286046996.6,N
1663330635.2,286046999.3,N
1663330655.9,286046998.6,N
1663330675.7,286046998.4,N
1663330695.6,286047000.7,N
1663330715.4,286046998.2,N
1663330735.2,286047001.0,N
1663330755.1,286047000.8,N
1663330756.0,286047000.8,N
1663330775.8,286047000.4,N
1663330795.7,286047000.6,N
1663330815.5,286046999.8,N
1663330835.3,286047000.1,N
1663330855.2,286046999.8,N
1663330875.0,286047002.8,N
1663330875.9,286047002.8,N
1663330895.8,286047000.3,N
1663330915.6,286047000.1,N
1663330935.4,286047000.9,N
1663330955.3,286047000.3,N
1663330975.1,286047000.2,N
1663330995.8,286047000.4,N
1663331015.7,286046999.3,N
1663331035.5,286046999.3,N
1663331055.4,286046999.3,N
1663331075.2,286046998.9,N
1663331095.0,286046998.3,N
1663331095.9,286046998.3,N
1663331115.8,286047000.6,N
1663331135.6,286047000.7,N
1663331155.4,286046999.9,N
1663331175.3,286047000.4,N
1663331195.1,286047002.4,N
1663331215.9,286047002.6,N
1663331235.7,286047002.8,N
1663331255.5,286047002.3,N
1663331275.4,286047002.6,N
1663331295.2,286047001.5,N
1663331315.0,286047002.2,N
1663331316.0,286047002.2,N
1663331335.8,286047002.6,N
1663331355.6,286047002.0,N
1663331375.5,286047002.1,N
1663331395.3,286047002.6,N
1663331415.1,286047002.5,N
1663331435.9,286047000.7,N
1663331455.7,286046998.9,N
1663331475.6,286046998.4,N
1663331495.4,286046998.4,N
1663331515.2,286047001.0,N
1663331535.1,286047000.2,N
1663331536.0,286047000.2,N
1663331555.8,286047000.5,N
1663331575.6,286047000.8,N
1663331595.5,286047000.7,N
1663331615.3,286047000.7,N
1663331635.2,286047002.3,N
1663331655.9,286047002.4,N
1663331675.7,286047002.7,N
1663331695.6,286047001.2,N
1663331715.4,286047000.3,N
1663331735.2,286046999.9,N
1663331755.1,286047002.8,N
1663331756.0,286047002.8,N
1663331775.8,286047002.6,N
1663331795.7,286047000.1,N
1663331815.5,286047002.6,N
1663331835.3,286047001.9,N
1663331855.2,286047002.2,N
1663331875.0,286047001.9,N
1663331875.9,286047001.9,N
1663331895.7,286047002.1,N
1663331915.6,286047002.0,N
1663331935.4,286047000.1,N
1663331955.3,286047000.0,N
1663331975.1,286047002.5,N
1663331976.0,286047002.5,N
1663331995.8,286047001.6,N
1663332015.7,286047001.9,N
1663332035.5,286046999.7,N
1663332055.3,286047000.2,N
1663332075.2,286047000.2,N
1663332095.0,286047002.1,N
1663332095.9,286047002.1,N
1663332115.8,286047002.3,N
1663332135.6,286047000.9,N
1663332155.4,286046999.8,N
1663332175.3,286047000.9,N
1663332195.1,286046998.5,N
1663332215.8,286047000.9,N
1663332235.7,286046999.9,N
1663332255.5,286047000.9,N
1663332275.4,286047000.9,N
1663332295.2,286047000.3,N
1663332315.0,286047000.9,N
1663332315.9,286047000.9,N
1663332335.8,286047001.2,N
1663332355.6,286046999.3,N
1663332375.4,286046999.1,N
1663332395.3,286046998.1,N
1663332415.1,286046998.7,N
1663332435.9,286047000.9,N
1663332455.7,286047000.8,N
1663332475.5,286047000.2,N
1663332495.4,286047002.4,N
1663332515.2,286047001.9,N
1663332535.1,286047001.8,N
1663332536.0,286047001.8,N
1663332555.8,286047003.9,Y
1663332575.6,286047002.8,P
1663332595.5,286047002.2,N
1663332615.3,286047002.7,N
1663332635.1,286047000.5,N
1663332655.9,286046998.2,N
1663332675.7,286047000.0,N
1663332695.6,286047000.7,N
1663332715.4,286046998.4,N
1663332735.2,286046999.0,N
1663332755.1,286046998.2,N
1663332756.0,286046998.2,N
1663332775.8,286047001.2,N
1663332795.6,286047001.1,N
1663332815.5,286047000.2,N
1663332835.3,286047002.6,N
1663332855.2,286047001.6,N
1663332875.9,286047002.6,N
1663332895.7,286047000.1,N
1663332915.6,286046999.8,N
1663332935.4,286047000.6,N
1663332955.2,286047001.0,N
1663332975.1,286046999.8,N
1663332976.0,286046999.8,N
1663332995.8,286047002.3,N
1663333015.7,286047002.4,N
1663333035.5,286046999.8,N
1663333055.3,286047000.1,N
1663333075.2,286047002.3,N
1663333095.0,286047002.1,N
1663333095.9,286047002.1,N
1663333115.8,286047001.7,N
1663333135.6,286047001.9,N
1663333155.4,286046999.7,N
1663333175.3,286047001.5,N
1663333195.1,286047003.8,N
